DMC3-FM2

Last updated on Mon Jun 22 2026 00:02:57 GMT+0000 (Coordinated Universal Time)

1 40716U 15032B 26172.53766763 .00000702 00000+0 86748-4 0 9995 2 40716 97.6509 39.1179 0007444 52.9093 307.2802 14.85750020590551
UTC large
Height (km)
Speed (km/s)
/
Latitude / Longitude
Inclination (degrees)
Orbital Period (minutes)
Azimuth
Elevation
Range (km)
Doppler Factor

Next 0 passes for location: London (51.5072 / 0.1276)

No passes found over London.
DMC3-FM2